Home   Weather   Santa Barbara   Past weeks

Flag for USA Past Weather in Santa Barbara, California, USA — Yesterday and Last 2 Weeks

Now
52 °F

Light rain. Fog.


Feels Like: 50 °F
Forecast: 53 / 58 °F
Wind: 7 mph from East

Location: Santa Barbara Municipal Airport

Current Time: Feb 20, 2017 at 12:36:41 am

Latest Report: Feb 20, 2017 at 12:05 am


Visibility: 5 mi

Pressure: 30.15 "Hg

Humidity: 100%

Dew Point: 52 °F

Location of Santa BarbaraLocation

Past Weather in Santa Barbara — Graph

°F

Santa Barbara Temperature Yesterday

Maximum temperature yesterday: 60 °F (at 11:53 am)
Minimum temperature yesterday: 45 °F (at 5:53 am)
Average temperature yesterday: 53 °F

High & Low Weather Summary for the Past Weeks

 TemperatureHumidityPressure
High67 °F (Feb 13, 12:53 pm)100% (Feb 4, 10:28 pm)30.21 "Hg (Feb 4, 10:28 pm)
Low44 °F (Feb 13, 6:53 am)43% (Feb 12, 1:53 pm)29.35 "Hg (Feb 17, 3:53 pm)
Average56 °F91%29.98 "Hg
* Reported Feb 4 10:28 pm — Feb 19 10:53 pm, Santa Barbara, Weather by CustomWeather, © 2017

Note: Actual official high and low records may vary slightly from our data, if they occured in-between our weather recording intervals... More about our weather records

Advertising

Santa Barbara Weather History for the Previous 24 Hours

Scroll right to see more
 ConditionsComfort  
Time TempWeatherWind HumidityBarometerVisibility
10:53 pm
Sun, Feb 19
52 °FLight rain. Fog.5 mph100%30.14 "Hg4 mi
9:53 pm51 °FLight rain. Fog.7 mph100%30.12 "Hg3 mi
8:53 pm51 °FLight rain. Fog.7 mph100%30.11 "Hg3 mi
7:53 pm52 °FLight rain. Fog.6 mph97%30.08 "Hg2 mi
6:53 pm52 °FLight rain. Fog.5 mph97%30.06 "Hg2 mi
6:17 pm52 °FLight rain. Fog.No wind100%30.05 "Hg2 mi
5:59 pm52 °FLight rain. Fog.3 mph97%30.04 "Hg2 mi
4:55 pm53 °FLight rain. Fog.3 mph96%30.02 "Hg4 mi
3:53 pm56 °FLight rain. Overcast.6 mph77%29.98 "Hg8 mi
2:53 pm57 °FOvercast.8 mph74%29.97 "Hg10 mi
1:53 pm59 °FMostly cloudy.7 mph64%29.96 "Hg10 mi
12:53 pm60 °FScattered clouds.6 mph60%29.96 "Hg10 mi
11:53 am60 °FPassing clouds.6 mph62%29.96 "Hg10 mi
10:53 am59 °FPassing clouds.9 mph64%29.96 "Hg10 mi
9:53 am58 °FPassing clouds.7 mph67%29.93 "Hg10 mi
8:53 am57 °FSunny.5 mph64%29.92 "Hg10 mi
7:53 am52 °FSunny.5 mph80%29.89 "Hg10 mi
6:53 am47 °FSunny.No wind97%29.85 "Hg10 mi
5:53 am45 °FClear.5 mph97%29.83 "Hg10 mi
4:53 am46 °FClear.3 mph96%29.80 "Hg10 mi
3:53 am46 °FClear.3 mph96%29.78 "Hg10 mi
2:53 am49 °FClear.7 mph86%29.77 "Hg10 mi
1:53 am48 °FClear.No wind93%29.76 "Hg10 mi
12:53 am52 °FClear.5 mph80%29.73 "Hg10 mi
Weather by CustomWeather, © 2017

See weather overviewHow to use our weather pages